Regional Weather Roundup
Issued by NWS State College, PA

Home | Current Version | Previous Version | Text Only | Print | Product List | Glossary Off
Versions: 1 2 3 4 5 6 7 8 9 10 11 12 13 14 15 16 17 18 19 20 21 22 23 24 25 26 27 28 29 30 31 32 33 34 35 36 37 38 39 40 41 42 43 44 45 46 47 48 49 50

000
ASUS41 KCTP 230603
RWRCTP

REGIONAL WEATHER ROUNDUP
NATIONAL WEATHER SERVICE STATE COLLEGE PA
200 AM EDT SAT AUG 23 2014

Note: "fair" indicates few or no clouds below 12,000 feet with no
significant weather and/or obstructions to visibility.

* = STATION THAT DOES NOT REPORT PRECIPITATION /E.G. RAIN...SNOW...ETC/
    THUNDER OR FOG.

PAZ002>004-007>009-013>016-020>023-029>032-230700-
WESTERN PENNSYLVANIA

CITY           SKY/WX    TMP DP  RH WIND       PRES   REMARKS
ERIE           FAIR      64  63  94 CALM      30.00S FOG
MEADVILLE      FAIR      65  63  93 CALM      30.02F FOG
FRANKLIN*      CLOUDY    64  61  88 N3        30.02F VSB 3/4
NEW CASTLE     NOT AVBL
BEAVER COUNTY  NOT AVBL
BUTLER*        MOCLDY    66  64  94 CALM      30.01F
PITTSBURGH INT FOG       69  68  96 NW6       29.98F VSB 1/4
PITTSBURGH     FAIR      71  68  90 W3        29.98F FOG
INDIANA*       MOCLDY    70  68  94 CALM      30.04S FOG
LATROBE        CLOUDY    72  72 100 CALM      30.00S
WASHINGTON CO* CLOUDY    70  68  94 CALM      30.00S
$$

PAZ004>006-010>012-017>019-024>028-033>037-041-042-045-046-049>053-230700-
CENTRAL PENNSYLVANIA

CITY           SKY/WX    TMP DP  RH WIND       PRES   REMARKS
BRADFORD       CLOUDY    65  64  97 E5        30.03F FOG
DUBOIS         FOG       65  65 100 E3        30.01F VSB 1/4
CLEARFIELD     FOG       67  67 100 CALM      30.02S VSB 1/4
JOHNSTOWN      CLOUDY    68  65  90 S8        30.04S
ALTOONA        CLOUDY    70  68  93 CALM      30.02F FOG
STATE COLLEGE  CLOUDY    68  66  95 CALM      30.01F FOG
WILLIAMSPORT   LGT RAIN  67  65  93 E13       29.99F
SELINSGROVE    CLOUDY    70  65  84 VRB3      30.01S
FT INDIANTOWN  LGT RAIN  67  67 100 N2        30.04R FOG
CAPITAL CITY   CLOUDY    71  65  81 SE8       30.01S
HARRISBURG     CLOUDY    71  64  78 SE9       30.01R
YORK           CLOUDY    70  66  87 SE7       30.01F
$$

PAZ038>040-043-044-047-048-054-055-060>062-067>071-230700-
EASTERN PENNSYLVANIA

CITY           SKY/WX    TMP DP  RH WIND       PRES   REMARKS
SCRANTON       CLOUDY    66  59  78 VRB3      30.05F
MOUNT POCONO   CLOUDY    61  58  90 E6        30.08F FOG
ALLENTOWN      CLOUDY    67  60  78 NE5       30.04F
QUAKERTOWN*    CLOUDY    66  63  88 CALM      30.05S
READING        CLOUDY    70  57  63 SE3       30.03S
LANCASTER      CLOUDY    68  63  84 E6        30.02F
COATESVILLE    FAIR      64  64 100 CALM      30.04F
POTTSTOWN      FAIR      63  59  87 CALM      30.05F
BLUE BELL      FAIR      63  63 100 CALM      30.03S
DOYLESTOWN     CLOUDY    66  62  87 CALM      30.03F
WILLOW GROVE   NOT AVBL
NORTH PHILA    FAIR      69  61  75 NE3       30.04F
PHILADELPHIA   FAIR      68  62  81 NE5       30.03F
$$



USA.gov is the U.S. government's official web portal to all federal, state and local government web resources and services.